Lid_Strength_Index
1 0 0 1 1 1 1 1 1 0 0 0 0 0 0 0 1 6 9 5 2 -0 1 5 7 8 7 8 7 8 13 14 13 13 13 12 13 13 13 13 14 13 13 11 10
0 0 0 1 1 1 1 1 1 1 1 0 0 1 0 1 6 8 4 1 1 2 7 9 9 9 10 9 10 10 13 13 12 13 13 12 12 13 14 14 14 13 11 10 11
0 0 0 1 1 1 1 1 1 1 1 0 1 0 0 4 8 10 1 2 2 4 8 8 8 9 11 11 12 12 13 12 12 11 12 12 13 13 15 15 14 15 12 12 12
0 0 0 1 1 1 1 1 1 1 1 0 1 0 1 6 11 9 -0 1 0 4 8 8 9 11 12 12 11 13 12 12 12 13 13 13 13 14 13 14 13 12 11 12 12
0 0 0 1 1 1 1 1 1 1 0 1 1 0 4 9 11 7 1 4 7 7 9 9 11 11 13 13 12 13 13 12 12 13 13 13 14 14 13 12 13 12 11 12 12
0 0 1 1 1 1 1 1 1 1 0 1 0 1 7 10 9 7 7 8 8 8 9 10 11 11 12 13 13 13 12 13 13 13 13 14 14 14 13 13 13 12 12 12 11
0 0 1 1 1 1 1 1 1 1 1 1 0 3 8 10 9 7 7 8 8 8 8 9 9 10 11 13 12 12 13 13 13 13 13 13 13 14 13 12 13 13 13 12 11
0 1 1 1 2 2 2 2 1 2 1 1 1 6 10 7 8 7 7 8 8 8 8 9 8 9 11 12 12 14 13 14 13 12 13 13 15 12 13 13 13 14 14 12 12
1 1 2 2 2 2 2 2 2 2 1 2 7 8 10 5 7 7 8 9 8 8 8 8 8 10 10 12 13 13 17 15 13 13 13 14 14 12 13 14 14 14 14 13 13
1 2 2 2 2 2 3 3 2 3 4 6 7 9 8 9 8 8 8 8 9 8 8 8 9 12 14 14 18 17 17 15 15 13 14 14 15 12 12 13 14 14 15 14 13
1 2 2 2 3 2 5 7 8 8 9 11 11 10 9 8 7 7 7 8 8 9 12 10 13 16 17 16 15 15 16 16 14 13 14 15 14 13 12 13 13 15 15 15 14
2 2 2 2 3 3 6 9 11 9 11 9 10 9 9 9 9 7 7 9 9 11 10 11 15 15 14 14 15 15 17 16 13 13 15 15 14 13 14 15 16 14 16 15 14
2 2 2 2 3 6 9 10 8 8 9 10 9 9 9 8 10 10 9 10 11 12 13 13 15 13 13 14 15 15 16 18 17 15 14 16 16 14 15 15 14 14 14 15 14
2 2 2 2 6 9 11 9 8 8 11 10 10 9 8 9 10 8 9 10 10 13 13 14 14 14 15 14 15 16 15 16 16 19 21 16 20 16 16 16 15 16 15 15 15
2 2 2 3 8 10 9 8 8 7 19 10 10 8 8 10 10 9 9 9 12 12 13 15 15 15 14 15 14 15 15 16 17 21 22 19 22 17 15 16 16 15 15 15 15
2 3 3 6 8 9 7 7 7 12 20 12 10 11 11 10 10 10 10 9 10 12 13 15 14 15 15 14 14 14 15 16 18 19 24 21 20 18 16 16 17 16 15 14 14
2 3 4 6 8 7 6 6 13 18 12 13 13 12 13 12 12 12 12 16 15 17 16 15 16 15 14 16 14 15 17 22 22 23 21 19 21 17 16 16 16 15 16 15 15
2 4 4 6 6 6 6 10 17 13 14 12 13 13 14 13 13 13 13 15 14 14 19 18 18 16 15 17 18 18 19 21 25 22 20 18 21 16 16 16 15 14 15 14 15
3 6 5 6 6 6 8 16 15 14 13 13 13 16 15 13 15 15 15 17 16 16 17 18 16 17 17 16 17 18 19 17 23 24 22 20 17 16 16 17 16 15 15 16 15
7 6 6 6 7 7 12 13 14 13 13 13 16 15 16 15 15 15 15 15 16 15 15 15 19 16 18 16 17 17 17 20 21 25 23 20 21 19 18 17 17 16 16 15 14
6 10 6 6 7 10 15 15 14 13 12 14 15 16 16 16 15 15 15 14 14 15 15 17 18 18 18 19 20 20 22 21 19 20 23 25 21 17 17 17 17 16 14 14 13
7 12 5 7 11 14 14 14 12 14 13 13 14 15 15 15 16 15 15 13 14 15 17 17 19 21 17 21 18 19 20 21 21 23 20 19 18 16 18 19 18 17 15 14 13
9 9 5 7 14 14 14 13 13 14 14 14 14 13 14 15 17 15 14 14 13 14 17 17 20 23 20 19 19 22 22 15 18 19 19 20 19 16 17 15 15 15 15 15 14
8 12 10 9 11 13 15 13 14 13 14 13 14 14 15 16 14 16 14 14 14 14 10 13 18 19 20 19 19 21 19 19 19 19 20 17 17 16 16 18 16 16 17 17 16
9 13 12 15 12 13 13 14 14 14 14 14 15 15 16 18 15 16 14 15 14 12 14 15 21 17 16 15 15 15 15 15 17 16 17 16 15 16 16 15 15 15 18 18 15
10 11 10 12 11 13 13 14 13 12 13 13 15 13 14 17 14 15 13 13 13 15 16 14 17 18 17 15 16 17 17 16 16 16 15 14 14 14 14 14 14 16 17 17 14
9 8 8 11 12 14 13 12 13 11 11 10 12 13 13 12 12 12 12 12 13 15 17 17 17 19 19 17 17 20 18 17 21 16 15 16 17 15 15 13 13 12 12 14 12